Medicine Hat, Alberta

11:01 AM MDT on April 25, 2017 (GMT -0600)
Medicine Hat

Weather History for CYXH - October, 2013

Change the Weather History Date:

Saturday, October 5, 2013

  Actual Average Record
Temperature  
Mean Temperature 25 °F -  
Max Temperature 60 °F 55 °F 77 °F (2003)
Min Temperature -10 °F 30 °F -16 °F (2014)
Degree Days  
Heating Degree Days 40    
Moisture  
Dew Point 27 °F    
Average Humidity 56    
Maximum Humidity 77    
Minimum Humidity 30    
Precipitation  
Precipitation 0.00 in 0.02 in - ()
Sea Level Pressure  
Sea Level Pressure 30.14 in    
Wind  
Wind Speed 8 mph ()    
Max Wind Speed 17 mph    
Max Gust Speed 17 mph    
Visibility 10.1 miles    
Events      
Averages and records for this station are not official NWS values.
T = Trace of Precipitation, MM = Missing Value Source: Averaged Metar Reports

Daily Weather History Graph

Daily Weather History Graph

Search for Another Location

Airport or City:

Trip Planner

Search our weather history database for the weather conditions in past years. The results will help you decide how hot, cold, wet, or windy it might be!

Date:

Astronomy

Oct. 05, 2013 Rise Set
Actual Time 7:29 AM MDT 6:51 PM MDT
Civil Twilight 6:57 AM MDT 7:24 PM MDT
Nautical Twilight 6:19 AM MDT 8:01 PM MDT
Astronomical Twilight 5:41 AM MDT 8:39 PM MDT
Moon 8:20 AM MDT (10/5) 7:02 PM MDT (10/5)
Length of Visible Light 12h 26m
Length of Day
11h 22m
New Moon, 1% of the Moon is Illuminated
Oct 5
New Moon
Oct 11
First Quarter
Oct 18
Full
Oct 26
Last Quarter
Nov 3
New

Hourly Weather History & Observations

Time (MDT) Temp. Windchill Dew Point Humidity Pressure Visibility Wind Dir Wind Speed Gust Speed Precip Events Conditions
12:00 AM -10 °F - -13 °F 77% 30.21 in - North 3.5 mph - -  
12:00 AM 41.0 °F 35.8 °F 24.8 °F 53% 30.23 in 9.0 mi South 8.1 mph - N/A   Clear
1:00 AM 41.0 °F 35.2 °F 24.8 °F 53% 30.21 in 9.0 mi South 9.2 mph - N/A   Clear
2:00 AM 42.8 °F 36.2 °F 24.8 °F 49% 30.20 in 9.0 mi SSW 12.7 mph - N/A   Clear
3:00 AM 41.0 °F 35.2 °F 26.6 °F 57% 30.16 in 9.0 mi SSW 9.2 mph - N/A   Clear
4:00 AM 41.0 °F 33.5 °F 26.6 °F 57% 30.16 in 9.0 mi SSW 13.8 mph - N/A   Clear
5:00 AM 35.6 °F 28.0 °F 28.4 °F 75% 30.16 in 9.0 mi SW 10.4 mph - N/A   Clear
6:00 AM -6 °F - -9 °F 77% 30.20 in - NW 3.5 mph - -  
6:00 AM 41.0 °F 34.3 °F 28.4 °F 61% 30.15 in 9.0 mi SW 11.5 mph - N/A   Partly Cloudy
7:00 AM 39.2 °F 30.2 °F 26.6 °F 61% 30.16 in 30.0 mi West 17.3 mph - N/A   Overcast
8:00 AM 39.2 °F 31.6 °F 28.4 °F 65% 30.17 in 30.0 mi SSW 12.7 mph - N/A   Mostly Cloudy
9:00 AM 42.8 °F 36.6 °F 30.2 °F 61% 30.19 in 30.0 mi SW 11.5 mph - N/A   Mostly Cloudy
10:00 AM 46.4 °F 41.9 °F 32.0 °F 57% 30.18 in 30.0 mi SW 9.2 mph - N/A   Overcast
11:00 AM 53.6 °F - 32.0 °F 44% 30.17 in 30.0 mi WSW 8.1 mph - N/A   Overcast
12:00 PM 59.0 °F - 33.8 °F 39% 30.15 in 30.0 mi West 9.2 mph - N/A   Mostly Cloudy
1:00 PM 59.0 °F - 35.6 °F 42% 30.14 in 30.0 mi SW 8.1 mph - N/A   Overcast
2:00 PM 64.4 °F - 33.8 °F 32% 30.11 in 30.0 mi WSW 8.1 mph - N/A   Mostly Cloudy
3:00 PM 64.4 °F - 33.8 °F 32% 30.10 in 30.0 mi West 9.2 mph 17.3 mph N/A   Mostly Cloudy
4:00 PM 66.2 °F - 33.8 °F 30% 30.07 in 30.0 mi SSW 9.2 mph - N/A   Mostly Cloudy
5:00 PM 66.2 °F - 37.4 °F 35% 30.06 in 30.0 mi WSW 9.2 mph - N/A   Mostly Cloudy
6:00 PM -10 °F - -14 °F 72% 30.14 in - NNW 2.3 mph - -  
6:00 PM 60.8 °F - 41.0 °F 48% 30.06 in 30.0 mi SW 6.9 mph - N/A   Mostly Cloudy
7:00 PM 55.4 °F - 41.0 °F 58% 30.07 in 30.0 mi WSW 4.6 mph - N/A   Mostly Cloudy
8:00 PM 50.0 °F - 37.4 °F 62% 30.09 in 15.0 mi SSW 3.5 mph - N/A   Scattered Clouds
9:00 PM 46.4 °F 42.4 °F 39.2 °F 76% 30.09 in 15.0 mi SSW 8.1 mph - N/A   Scattered Clouds
10:00 PM 46.4 °F 43.5 °F 37.4 °F 71% 30.09 in 9.0 mi SSW 5.8 mph - N/A   Clear
11:00 PM 44.6 °F 40.7 °F 37.4 °F 76% 30.09 in 9.0 mi SSW 6.9 mph - N/A   Clear